Theta_e
329 330 330 329 328 326 323 323 318 315 311 313 310 308 306 304 303 302 301 308 311 312 315 318 321 325 327 328 329 332 329 326 326 324 320 319 320 320 320 321 321 322 321
324 322 320 320 320 320 319 316 314 313 311 311 311 311 309 308 307 304 303 303 310 310 312 315 316 318 320 322 324 326 328 331 330 330 323 320 318 317 318 319 319 320 319
320 317 315 314 314 315 314 313 312 312 310 310 311 311 310 308 308 306 305 304 304 309 312 311 311 312 314 315 317 320 322 325 327 328 324 323 320 317 317 317 318 318 318
313 312 311 310 312 312 311 310 309 309 309 308 307 306 306 306 308 307 304 302 300 301 304 309 309 309 311 312 314 315 316 317 319 322 324 327 324 320 318 318 317 318 319
308 308 307 307 309 309 309 310 307 305 301 300 301 302 303 302 305 302 300 299 300 300 299 305 307 307 309 312 313 313 314 315 315 315 317 321 325 325 320 320 319 319 318
305 305 303 303 303 302 301 302 302 301 298 297 301 303 303 301 300 299 298 300 298 296 298 299 299 300 307 308 311 313 315 314 314 313 314 315 317 319 325 323 321 320 319
300 299 299 299 297 296 295 297 300 298 295 295 297 298 298 299 297 297 297 296 292 292 293 293 291 293 297 305 307 310 312 312 312 312 312 312 313 315 317 319 324 323 321
293 293 292 291 291 290 289 290 290 293 293 291 291 294 293 296 294 297 293 293 288 289 290 291 289 291 293 296 300 306 306 308 307 307 308 310 311 312 314 315 317 319 324
290 290 289 289 288 288 287 287 287 287 286 288 287 289 287 285 287 292 288 288 286 287 287 290 288 290 291 295 298 298 301 301 302 302 303 304 306 309 311 312 313 315 316
288 288 288 288 287 287 286 286 287 285 285 283 286 288 284 286 282 279 284 284 286 286 285 286 286 288 289 292 294 299 299 299 299 299 300 302 303 304 306 310 312 312 314
286 286 286 285 285 286 285 284 284 284 284 282 282 283 282 281 281 279 276 279 281 283 284 284 285 287 288 290 288 293 295 297 296 295 297 298 300 302 304 305 306 311 312
284 284 285 284 284 283 283 283 283 282 282 282 282 281 281 279 278 278 276 277 277 280 283 284 284 286 287 288 292 292 292 294 294 294 295 296 298 299 301 303 304 305 308
282 282 283 282 282 282 283 283 281 281 281 280 280 280 281 281 281 280 278 276 276 278 280 283 284 285 288 287 287 290 290 290 292 292 293 294 296 297 298 300 302 302 303
282 282 282 282 281 282 282 282 280 280 280 279 279 279 279 280 281 280 279 277 275 276 277 278 282 283 284 285 287 289 285 288 289 291 292 292 294 295 296 297 299 300 301
283 282 282 281 281 281 281 281 279 279 279 279 279 279 279 279 280 279 279 279 277 273 274 276 277 280 282 283 284 283 283 286 288 288 289 290 292 293 294 295 296 298 299
281 281 281 280 280 279 279 279 278 278 278 278 278 278 277 278 278 278 278 278 277 275 273 276 278 279 280 281 282 281 280 283 284 286 287 288 289 291 292 293 294 296 297
281 280 280 279 279 278 278 277 277 277 277 277 277 277 277 277 276 276 276 276 276 275 273 275 277 277 277 277 278 279 280 279 279 283 285 287 289 289 289 291 293 294 295
280 279 279 279 278 278 277 277 277 277 276 276 277 276 276 278 275 275 275 274 274 274 273 272 274 275 275 276 276 276 277 279 278 281 284 285 285 286 286 287 289 290 290
279 278 278 277 277 277 277 277 277 277 277 277 277 276 276 275 275 274 273 273 273 275 273 273 273 274 274 275 274 275 276 276 278 281 282 282 283 284 285 286 286 288 288
278 277 277 277 277 276 276 276 276 276 276 277 277 277 276 275 274 274 274 273 274 273 273 272 272 272 272 274 274 273 273 275 275 277 279 280 281 282 283 284 284 284 284
278 277 276 276 276 275 276 275 276 276 276 276 276 276 276 276 278 277 275 274 273 272 271 271 271 271 271 272 272 273 273 273 274 275 275 276 277 277 278 281 281 282 284
277 276 275 275 274 276 278 278 277 276 276 276 275 275 275 276 275 277 278 278 277 273 270 270 271 271 272 273 274 273 273 272 270 276 274 274 277 276 277 278 282 283 284
276 275 274 274 274 274 278 279 278 277 275 275 275 275 275 275 275 274 275 277 277 277 278 276 273 273 272 273 274 273 273 273 273 275 276 273 276 275 278 279 282 283 283
274 274 273 273 273 274 278 279 278 275 274 274 274 274 274 274 274 274 274 273 274 275 276 276 276 276 277 278 277 277 276 276 276 276 277 271 275 274 276 277 281 282 282
273 272 272 271 271 271 278 278 277 273 273 273 275 274 274 273 275 278 276 273 274 275 278 278 278 279 279 279 278 274 271 271 270 271 275 273 274 274 275 275 277 280 281
274 273 273 271 270 267 276 277 277 273 267 272 273 275 277 276 278 279 276 274 271 271 272 272 272 272 273 273 275 273 272 269 269 269 275 272 272 274 271 274 276 276 276
Wind_Speed
5 4 4 5 5 4 4 4 4 3 4 4 5 5 5 5 5 3 2 6 9 11 12 11 11 12 12 13 14 13 8 7 8 6 5 2 5 7 7 9 8 9 10
6 6 6 6 6 5 5 4 4 4 3 3 5 4 5 5 5 5 4 3 6 10 13 14 14 13 13 12 13 13 15 15 12 10 7 6 2 1 3 6 6 8 8
8 8 6 6 4 5 6 5 5 4 4 4 4 4 4 5 5 5 5 5 6 9 13 17 16 15 15 15 14 14 14 14 15 11 4 7 5 3 3 3 5 7 6
9 8 7 6 4 4 4 4 3 3 3 3 3 3 3 4 5 5 6 6 5 5 10 17 18 17 18 16 16 16 16 15 15 16 14 16 10 7 8 6 6 8 9
6 6 5 4 4 3 3 4 3 4 4 4 4 3 0 2 5 6 8 7 7 6 4 11 14 15 19 20 18 17 17 17 17 17 18 18 19 13 10 10 9 9 10
7 6 5 7 6 5 6 4 6 6 4 4 4 4 4 4 5 5 6 7 8 9 8 7 6 7 17 19 19 19 18 18 19 19 19 19 20 18 16 14 12 11 10
8 7 6 7 7 8 7 8 4 6 7 8 4 4 4 6 6 5 5 6 6 8 7 6 8 6 7 19 19 18 19 19 20 20 20 21 21 20 20 19 15 15 13
8 9 8 7 7 7 9 8 7 3 4 8 3 1 2 3 5 5 5 6 7 5 7 7 10 8 6 5 11 17 18 18 20 22 22 22 22 22 21 21 20 20 18
9 8 8 7 7 5 6 6 6 7 5 5 10 4 4 2 3 2 5 5 6 5 6 6 10 8 7 5 8 8 15 18 23 25 23 23 23 22 21 21 21 21 22
8 8 8 7 7 5 7 5 6 6 4 5 3 5 5 2 2 5 5 3 8 6 7 5 6 7 7 5 9 9 15 18 22 26 25 24 24 23 23 22 21 21 22
7 7 7 7 7 6 6 7 7 7 5 4 4 3 3 3 4 1 4 5 3 5 5 6 5 5 6 6 6 9 19 21 24 27 24 25 25 25 25 24 23 23 22
4 6 8 7 7 6 6 6 6 8 6 6 4 5 3 2 2 3 3 4 5 4 8 4 6 4 6 5 9 19 24 27 29 26 27 26 25 25 26 26 25 24 24
3 5 6 6 5 6 6 6 6 6 6 4 5 4 3 3 2 1 2 3 3 4 3 5 3 5 6 7 8 17 18 23 27 27 28 28 27 27 26 25 25 26 25
4 5 6 6 6 6 6 6 4 3 5 4 4 4 2 2 2 1 1 2 4 3 3 4 3 3 8 6 11 19 12 20 25 26 27 29 28 28 27 26 26 26 26
4 6 6 7 6 6 6 6 4 3 4 3 3 3 2 2 2 3 2 1 1 4 5 3 4 5 8 8 12 13 11 19 26 27 28 27 26 28 29 28 27 27 27
5 6 6 6 6 6 6 6 4 4 4 2 3 4 3 2 3 3 3 3 2 3 6 2 7 9 9 10 14 12 14 22 22 23 25 28 28 28 28 28 28 27 27
6 6 6 6 6 6 5 5 4 4 3 3 3 4 4 4 3 3 3 3 3 2 6 12 5 8 12 10 12 12 12 13 11 22 26 25 26 28 29 28 27 25 25
6 6 6 6 6 6 5 4 3 2 2 2 2 3 4 3 4 4 3 4 3 3 4 15 11 10 10 10 11 14 13 11 11 19 26 27 25 25 27 28 29 29 29
7 6 6 6 6 5 4 2 2 0 1 2 3 4 4 4 4 3 3 4 3 6 5 8 13 9 10 9 12 11 12 13 9 21 22 24 25 25 23 24 27 26 27
7 7 6 6 5 4 3 2 2 1 2 3 4 5 5 5 5 4 4 4 6 6 6 8 10 11 10 10 9 11 12 9 11 11 15 19 23 22 21 27 25 27 27
7 6 6 6 5 4 2 3 1 1 3 5 5 5 5 6 10 10 6 5 5 6 7 8 10 10 11 10 11 10 12 12 12 10 11 10 9 10 11 17 18 24 25
7 6 6 6 5 3 7 6 5 4 3 5 5 5 5 5 8 13 14 16 13 8 9 7 11 12 15 12 11 11 12 13 16 8 9 12 10 11 10 10 21 25 25
6 6 6 6 6 5 9 10 10 4 4 4 6 7 7 5 5 5 11 16 16 19 20 16 16 14 16 15 16 17 16 15 15 12 12 14 10 12 10 11 23 27 27
8 6 6 6 6 6 13 11 10 4 4 6 7 7 7 7 6 8 9 11 11 11 12 11 13 13 13 13 14 14 16 16 13 9 9 17 12 12 10 9 22 27 26
6 6 4 6 7 5 12 11 9 3 6 8 8 7 7 9 12 15 12 8 10 9 11 22 26 27 28 30 26 14 12 12 13 10 8 13 12 12 10 11 10 17 15
7 7 6 7 7 5 11 12 10 3 4 6 6 9 12 13 17 17 9 7 7 10 13 11 10 15 16 15 22 13 11 11 11 10 5 11 11 11 8 5 6 7 10
Wind_Direction
67 79 73 75 64 59 49 85 74 52 40 15 11 11 15 14 7 18 48 53 34 18 16 20 19 12 4 1 358 356 333 314 303 224 194 103 32 17 8 351 336 337 356
59 57 46 50 48 51 43 54 53 42 12 21 1 13 6 3 6 26 18 33 51 37 22 20 13 8 3 357 355 349 343 357 352 307 209 196 193 20 2 350 338 318 326
102 103 90 76 64 59 57 49 48 25 36 7 11 9 27 8 3 28 38 32 27 28 34 16 9 6 4 356 352 350 350 343 342 350 229 289 269 246 240 280 308 305 304
60 70 82 76 68 82 91 92 70 62 50 25 1 338 4 19 351 46 49 47 39 25 23 25 19 16 4 0 355 351 348 346 344 337 330 347 266 251 255 245 265 290 296
82 89 90 98 88 64 70 81 56 60 32 1 333 293 120 57 44 59 67 54 40 37 26 18 20 9 4 360 359 358 355 349 345 344 342 333 339 268 257 278 275 284 290
58 65 65 60 53 49 37 32 67 56 38 335 302 349 94 82 70 56 61 51 39 24 23 16 7 355 1 359 357 353 352 359 358 352 346 339 333 334 285 286 271 271 276
54 52 55 63 51 55 36 30 44 62 25 359 29 9 37 74 52 69 65 64 36 17 24 2 17 351 350 359 356 1 4 359 1 358 353 347 341 340 330 326 295 271 263
43 62 57 61 62 54 41 34 36 45 53 22 35 237 48 354 14 71 48 54 35 9 11 355 9 344 346 342 356 9 8 8 7 360 353 349 345 339 333 326 317 313 287
58 61 59 61 64 66 61 42 37 40 52 18 36 73 33 359 329 342 60 41 28 17 356 354 350 337 345 344 359 16 12 5 2 356 351 346 341 335 331 327 320 310 303
59 56 60 64 66 57 59 54 40 42 47 48 23 23 50 75 48 328 341 8 19 353 338 350 329 322 333 339 350 13 7 355 350 348 342 338 334 332 328 322 318 314 308
65 64 64 62 61 56 58 59 42 41 44 57 55 12 13 15 57 30 297 331 345 336 336 323 304 303 323 331 344 11 354 344 339 339 336 331 327 324 322 320 318 311 307
69 74 77 72 69 66 61 61 56 47 45 46 46 46 63 44 14 358 322 313 298 301 304 307 321 336 330 341 5 358 343 334 332 330 325 324 322 320 317 314 312 312 308
85 78 76 74 75 79 74 63 62 57 50 51 45 42 22 43 27 329 286 300 293 285 299 296 318 311 16 354 346 335 330 327 324 322 322 321 318 315 313 313 310 308 307
113 99 92 90 83 80 82 85 76 72 73 63 65 66 17 4 13 2 307 327 313 296 288 305 283 30 355 338 327 330 322 323 322 320 318 315 315 314 312 311 309 307 304
122 121 121 115 108 91 85 99 101 75 69 66 55 41 21 357 355 336 311 282 266 316 306 304 336 345 337 328 324 321 323 321 320 317 314 312 313 314 312 308 306 305 303
131 134 128 120 120 108 92 101 89 70 72 35 65 29 5 326 342 342 329 331 318 258 281 305 308 316 323 322 318 328 316 316 313 314 318 313 311 307 307 306 305 303 302
150 140 141 137 125 111 93 97 98 86 62 31 11 27 328 326 328 336 326 316 303 297 286 298 308 310 313 313 316 315 314 312 312 312 314 309 324 320 316 318 313 309 307
144 147 149 133 118 110 97 91 104 85 62 359 332 331 308 329 319 315 307 308 296 287 285 293 305 308 309 315 310 311 313 307 311 310 318 313 314 318 312 305 299 300 304
150 155 151 134 123 102 109 116 138 179 334 305 294 287 293 299 294 295 304 313 313 299 280 285 298 305 306 313 308 303 306 306 305 310 310 313 312 309 317 318 316 308 305
161 167 152 132 125 138 154 194 191 278 285 283 281 279 279 278 283 305 316 294 298 297 297 291 296 303 303 310 301 307 305 305 306 304 304 303 308 303 308 305 306 308 308
170 162 145 142 155 162 199 189 108 297 286 281 280 278 269 262 277 287 285 261 261 280 282 289 292 295 299 306 304 307 296 301 297 296 296 298 292 297 297 299 298 300 300
163 152 161 174 181 186 211 209 220 226 258 281 285 279 275 281 283 286 289 291 284 284 276 283 287 286 293 296 295 293 293 295 295 279 278 296 292 292 291 290 290 295 302
168 174 184 183 195 204 222 223 234 236 258 270 276 277 277 273 282 280 283 287 286 284 282 290 291 286 290 289 289 288 286 284 283 293 296 293 293 287 286 285 296 297 298
177 179 189 193 197 211 222 227 232 232 249 258 261 262 263 270 260 271 271 268 267 267 275 280 282 287 283 288 284 292 296 297 290 293 295 290 296 290 294 294 295 295 298
177 181 183 190 204 207 225 230 231 218 253 257 260 259 254 258 261 280 273 275 285 286 298 303 300 304 309 309 307 308 301 297 295 304 295 280 293 295 295 294 280 292 304
189 186 194 199 205 197 225 234 235 204 240 260 264 267 261 263 267 279 287 289 304 304 302 305 320 314 310 303 309 304 299 291 293 296 306 307 302 310 299 256 283 301 300